[[{"header":{"parameterUnit":"m.s-1","parameterCategory":1,"la1":30.2991,"la2":30.254,"lo1":-89.0895,"lo2":-89.0444,"dy":0.0017,"dx":0.0017,"nx":28,"ny":28,"refTime":"2025-01-12T03:00:00:Z","depth":0,"parameterNumber":2,"parameterNumberName":"U-component_of_WINDS"},"data":[0,0,0,0,0,0,0,0,0,0,0,0,0,0,0,0,0,0,0,0,0,0,0,0,0,0,0,0,0,0,0,0,0,0,0,0,0,0,0,0,0,0,0,0,0,0,0,0,0,0,0,0,0,0,0,0,0,0,-6.8124,-6.8126,0,-6.8301,-6.8303,-6.8305,-6.8196,-6.8191,-6.8186,-6.8181,-6.8364,-6.8373,-6.8383,0,0,0,0,0,0,0,0,0,0,0,0,0,-6.7693,-6.7701,-6.8124,-6.8126,-6.8128,-6.8301,-6.8304,-6.8306,-6.8197,-6.8191,-6.8185,-6.8179,-6.8361,-6.8372,-6.8384,0,0,0,0,0,0,0,0,0,0,0,0,0,-6.7876,-6.7704,-6.8124,-6.8095,-6.8094,-6.8301,-6.8304,-6.8307,-6.8198,-6.8191,-6.8183,-6.8176,-6.8357,-6.8371,-6.8386,-6.8631,0,0,-6.843,-6.8436,0,0,0,0,0,0,0,0,-6.7866,-6.7892,-6.8097,-6.8097,-6.8097,-6.8219,-6.8218,-6.8415,-6.82,-6.8159,-6.8181,-6.8172,-6.8322,-6.8339,-6.8389,-6.8639,-6.8647,-6.8431,-6.844,-6.8446,-6.845,0,0,0,0,0,0,0,-6.7853,-6.7884,-6.8194,-6.81,-6.81,-6.8074,-6.8091,-6.8255,-6.8282,-6.8162,-6.8154,-6.8177,-6.8321,-6.8376,-6.8393,-6.865,-6.8431,-6.8444,-6.8453,-6.8458,-6.9109,-6.9117,0,0,0,0,0,0,-6.7843,-6.7874,-6.8188,-6.8199,-6.796,-6.8088,-6.8107,-6.8187,-6.828,-6.8286,-6.8183,-6.8171,-6.8355,-6.8376,-6.8399,-6.869,-6.8446,-6.846,-6.8468,-6.91,-6.9111,-6.912,0,0,0,0,0,0,-6.7834,-6.7872,-6.8181,-6.8035,-6.8072,-6.8103,-6.8194,-6.8195,-6.825,-6.8296,-6.83,-6.8234,-6.8349,-6.8378,-6.8573,-6.8695,-6.8466,-6.848,-6.909,-6.9103,-6.9115,-6.9276,0,0,0,0,0,0,-6.7822,-6.7869,-6.7962,-6.8038,-6.808,-6.8353,-6.8202,-6.8204,-6.8275,-6.8261,-6.8345,-6.8352,-6.8345,-6.8552,-6.8588,-6.8711,-6.8491,-6.9079,-6.9096,-6.9111,-6.926,-6.9293,-6.9321,0,0,0,0,0,-6.7807,-6.8001,-6.7967,-6.8006,-6.8197,-6.836,-6.8385,-6.8373,-6.8285,-6.8379,-6.8409,-6.8349,-6.8677,-6.8573,-6.8612,-6.8742,-6.9072,-6.9091,-6.911,-6.9246,-6.9286,-6.932,0,0,0,0,0,0,-6.7938,-6.801,-6.7974,-6.8198,-6.8274,-6.8341,-6.8459,-6.8416,-6.8519,-6.8501,-6.8483,-6.8503,-6.8706,-6.8744,-6.8627,-6.8983,-6.886,-6.8889,-6.8951,-6.8989,-6.9019,-6.9004,-6.8503,0,0,0,0,0,-6.7994,-6.812,-6.8176,-6.8368,-6.8408,-6.8428,-6.8498,-6.8483,-6.8561,-6.8592,-6.8636,-6.8715,-6.8835,-6.8915,-6.9028,-6.9266,-6.9282,-6.9375,-6.9405,-6.943,-6.9453,-6.958,-6.9621,-6.9183,-6.9183,-6.9183,0,0,-6.8109,-6.8164,-6.8244,-6.8396,-6.8453,-6.8584,-6.8455,-6.8599,-6.8696,-6.8614,-6.88,-6.8836,-6.8922,-6.914,-6.9237,-6.9177,-6.9578,-6.9454,-6.9474,-6.9484,-6.9604,-6.9646,-6.9683,-6.9196,-6.9194,-6.9192,0,0,-6.8384,-6.844,-6.8605,-6.8665,-6.8753,-6.8765,-6.8805,-6.888,-6.89,-6.9087,-6.9028,-6.9144,-6.9352,-6.9415,-6.9475,-6.9777,-6.9725,-6.9815,-6.9973,-7.0097,-7.0132,-7.0162,-7.0268,-7.0306,-6.9839,-6.984,-6.984,0,-6.8516,-6.871,-6.8695,-6.8844,-6.8912,-6.8845,-6.9012,-6.9072,-6.9193,-6.9241,-6.9173,-6.9432,-6.9486,-6.9716,-6.979,-6.9842,-6.9886,-6.9803,-7.0128,-7.0158,-7.0187,-7.0287,-7.0327,-6.985,-6.9848,-6.9847,-6.9846,0,-6.8866,-6.9003,-6.9126,-6.9243,-6.9326,-6.9484,-6.9493,-6.9579,-6.9558,-6.9577,-6.9768,-6.9831,-6.9955,-7.001,-6.999,-7.0238,-7.0197,-7.013,-7.0005,-7.0239,-7.0332,-7.0371,-6.9864,-6.986,-6.9857,-6.9855,0,0,-6.9226,-6.9336,-6.9381,-6.9433,-6.9526,-6.9631,-6.9786,-6.9908,-6.9981,-7.0068,-7.0196,-7.0375,-7.0312,-7.038,-7.0368,-7.0478,-7.0711,-7.0396,-7.0397,-7.045,-7.0985,-7.1033,-7.1078,-7.0679,-7.0686,-7.0692,-7.0977,0,-6.9505,-6.9774,-6.9766,-7.0017,-7.0142,-7.0081,-7.0216,-7.0288,-7.0312,-7.0421,-7.0447,-7.0573,-7.0482,-7.0523,-7.0629,-7.066,-7.0818,-7.064,-7.0797,-7.0803,-7.0773,-7.1128,-7.1179,-7.1445,-7.1014,-7.102,-7.1025,0,-6.9865,-6.9963,-7.0226,-7.0301,-7.0353,-7.0474,-7.0585,-7.0691,-7.0772,-7.0781,-7.0858,-7.0829,-7.0986,-7.0861,-7.1077,-7.0956,-7.1021,-7.1046,-7.1056,-7.1067,-7.0925,-7.1146,-7.153,-7.1568,-7.1083,-7.1078,-7.1074,0,-7.0098,-7.0296,-7.0478,-7.0526,-7.0618,-7.0705,-7.0747,-7.0821,-7.0894,-7.0992,-7.104,-7.1155,-7.1218,-7.1308,-7.1311,-7.1219,-7.1529,-7.1404,-7.154,-7.154,-7.1604,-7.16,-7.2001,-7.1653,-7.1652,-7.1651,-7.165,0,-7.0407,-7.057,-7.0584,-7.0696,-7.0876,-7.0867,-7.1046,-7.1081,-7.1147,-7.1265,-7.1222,-7.1333,-7.1332,-7.1446,-7.145,-7.1627,-7.1657,-7.1668,-7.1666,-7.167,-7.1668,-7.1709,-7.1689,-7.1662,-7.1659,-7.1657,-7.1656,0,-7.0695,-7.0712,-7.0906,-7.0979,-7.1001,-7.113,-7.1192,-7.1299,-7.1319,-7.1469,-7.1503,-7.1536,-7.1668,-7.1681,-7.1834,-7.1837,-7.205,-7.2031,-7.2023,-7.2018,-7.2152,-7.2138,-7.2591,-7.2649,-7.2266,-7.227,-7.2273,0,-7.089,-7.1013,-7.1099,-7.1174,-7.1222,-7.1345,-7.1419,-7.1417,-7.1497,-7.1599,-7.1694,-7.1821,-7.1923,-7.2137,-7.2174,-7.2291,-7.2272,-7.2423,-7.2289,-7.2289,-7.2271,-7.2262,-7.2273,-7.2447,-7.2452,-7.2455,-7.2458,0,-7.1232,-7.1234,-7.1343,-7.1457,-7.1548,-7.1637,-7.172,-7.1785,-7.1792,-7.1885,-7.2019,-7.2098,-7.2255,-7.2382,-7.2498,-7.2542,-7.2502,-7.2501,-7.2537,-7.254,-7.2529,-7.2534,-7.2089,-7.2489,-7.2486,-7.2483,-7.2482,-7.2481,-7.1477,-7.1583,-7.166,-7.1784,-7.1846,-7.1926,-7.2029,-7.2063,-7.2175,-7.2301,-7.2294,-7.2442,-7.2521,-7.2672,-7.2726,-7.2841,-7.2791,-7.2845,-7.2859,-7.2871,-7.2883,-7.2514,-7.2863,-7.2862,-7.2862,-7.2861,-7.286,0,-7.1813,-7.1861,-7.1975,-7.2092,-7.219,-7.2145,-7.2236,-7.232,-7.245,-7.2528,-7.2629,-7.2783,-7.2907,-7.2955,-7.3076,-7.3159,-7.3144,-7.3191,-7.3183,-7.3193,-7.2923,-7.2877,-7.3201,-7.3201,-7.3201,-7.3201,-7.3201,-7.3201,-7.2,-7.2177,-7.2189,-7.2397,-7.2444,-7.2587,-7.2643,-7.2716,-7.2777,-7.2951,-7.3054,-7.3085,-7.315,-7.3276,-7.3387,-7.3399,-7.3444,-7.3498,-7.3501,-7.3247,-7.3212,-7.3179,-7.3136,-7.3509,-7.351,-7.3761,-7.3763,-7.3765]},{"header":{"parameterUnit":"m.s-1","parameterCategory":1,"la1":30.2991,"la2":30.254,"lo1":-89.0895,"lo2":-89.0444,"dy":0.0017,"dx":0.0017,"nx":28,"ny":28,"refTime":"2025-01-12T03:00:00:Z","depth":0,"parameterNumber":3,"parameterNumberName":"V-component_of_WINDS"},"data":[0,0,0,0,0,0,0,0,0,0,0,0,0,0,0,0,0,0,0,0,0,0,0,0,0,0,0,0,0,0,0,0,0,0,0,0,0,0,0,0,0,0,0,0,0,0,0,0,0,0,0,0,0,0,0,0,0,0,-0.7194,-0.7193,0,-0.7132,-0.7131,-0.7131,-0.7144,-0.7146,-0.7147,-0.7148,-0.7079,-0.7077,-0.7074,0,0,0,0,0,0,0,0,0,0,0,0,0,-0.7319,-0.7316,-0.7194,-0.7193,-0.7192,-0.7132,-0.7131,-0.713,-0.7144,-0.7146,-0.7147,-0.7148,-0.708,-0.7077,-0.7073,0,0,0,0,0,0,0,0,0,0,0,0,0,-0.7261,-0.7316,-0.7194,-0.7192,-0.7191,-0.7132,-0.7131,-0.713,-0.7144,-0.7146,-0.7147,-0.7149,-0.7082,-0.7077,-0.7073,-0.7011,0,0,-0.706,-0.7058,0,0,0,0,0,0,0,0,-0.7265,-0.7257,-0.7193,-0.7192,-0.7191,-0.7148,-0.715,-0.709,-0.7143,-0.7162,-0.7148,-0.715,-0.71,-0.7095,-0.7079,-0.7007,-0.7004,-0.7059,-0.7057,-0.7055,-0.7053,0,0,0,0,0,0,0,-0.7268,-0.7259,-0.7169,-0.7192,-0.7191,-0.7193,-0.7186,-0.7139,-0.7122,-0.716,-0.7161,-0.7154,-0.71,-0.7083,-0.7077,-0.7003,-0.7059,-0.7055,-0.7053,-0.7051,-0.6875,-0.6873,0,0,0,0,0,0,-0.7274,-0.7263,-0.7171,-0.7168,-0.7233,-0.7189,-0.7182,-0.716,-0.7122,-0.7118,-0.7152,-0.7155,-0.709,-0.7083,-0.7075,-0.6998,-0.7055,-0.7051,-0.7048,-0.6877,-0.6874,-0.6872,0,0,0,0,0,0,-0.7277,-0.7266,-0.7174,-0.7215,-0.7204,-0.7185,-0.716,-0.7158,-0.7141,-0.7117,-0.7113,-0.7139,-0.7091,-0.7081,-0.7026,-0.6996,-0.7049,-0.7045,-0.6879,-0.6876,-0.6873,-0.6843,0,0,0,0,0,0,-0.728,-0.7267,-0.7244,-0.7215,-0.7202,-0.7128,-0.7158,-0.7155,-0.7134,-0.7136,-0.7102,-0.7099,-0.7092,-0.7033,-0.7022,-0.699,-0.7041,-0.6882,-0.6878,-0.6874,-0.6847,-0.684,-0.6833,0,0,0,0,0,-0.7285,-0.7238,-0.7243,-0.7232,-0.7173,-0.7126,-0.7118,-0.7112,-0.7131,-0.7107,-0.7092,-0.71,-0.7001,-0.7027,-0.7015,-0.6982,-0.6884,-0.6879,-0.6875,-0.685,-0.6841,-0.6834,0,0,0,0,0,0,-0.7262,-0.7234,-0.7239,-0.7182,-0.7156,-0.7128,-0.7098,-0.7103,-0.7071,-0.7074,-0.7067,-0.7059,-0.7003,-0.6987,-0.7016,-0.6918,-0.6945,-0.6938,-0.693,-0.6922,-0.6915,-0.6919,-0.7038,0,0,0,0,0,-0.7251,-0.7217,-0.7193,-0.7144,-0.7131,-0.7117,-0.7096,-0.7094,-0.7067,-0.7056,-0.7036,-0.7007,-0.697,-0.6945,-0.691,-0.6845,-0.6837,-0.6816,-0.681,-0.6804,-0.6797,-0.676,-0.675,-0.6857,-0.6857,-0.6857,0,0,-0.7227,-0.7207,-0.7185,-0.7139,-0.7119,-0.7082,-0.7108,-0.7068,-0.7039,-0.7049,-0.6996,-0.698,-0.6948,-0.6888,-0.686,-0.6872,-0.6766,-0.6798,-0.6794,-0.679,-0.6754,-0.6744,-0.6735,-0.6854,-0.6854,-0.6855,0,0,-0.7163,-0.7145,-0.7102,-0.7082,-0.7051,-0.7042,-0.7032,-0.7003,-0.6993,-0.694,-0.6946,-0.6911,-0.6848,-0.6824,-0.6803,-0.673,-0.6735,-0.6718,-0.6682,-0.6645,-0.6637,-0.6629,-0.66,-0.659,-0.6712,-0.6712,-0.6712,0,-0.7135,-0.7081,-0.7079,-0.7037,-0.7016,-0.7025,-0.6979,-0.6959,-0.6918,-0.6902,-0.6918,-0.6837,-0.6816,-0.6749,-0.6731,-0.6715,-0.6701,-0.6721,-0.6639,-0.6631,-0.6624,-0.6596,-0.6585,-0.671,-0.671,-0.671,-0.671,0,-0.7048,-0.701,-0.6978,-0.694,-0.6915,-0.6872,-0.6861,-0.6836,-0.6836,-0.6824,-0.6768,-0.6744,-0.6702,-0.6687,-0.6686,-0.6619,-0.6627,-0.6641,-0.6667,-0.6611,-0.6585,-0.6575,-0.6707,-0.6708,-0.6708,-0.6709,0,0,-0.6967,-0.6928,-0.6916,-0.6898,-0.6865,-0.6835,-0.6791,-0.6752,-0.673,-0.6701,-0.6662,-0.6608,-0.662,-0.6597,-0.6593,-0.6562,-0.6502,-0.6578,-0.6577,-0.6563,-0.6423,-0.6412,-0.64,-0.6506,-0.6504,-0.6502,-0.6425,0,-0.6899,-0.6824,-0.682,-0.675,-0.6714,-0.6722,-0.6683,-0.6658,-0.6646,-0.6611,-0.6597,-0.6558,-0.6578,-0.6564,-0.6533,-0.6516,-0.6473,-0.6521,-0.6467,-0.6465,-0.6473,-0.6386,-0.6374,-0.6302,-0.6415,-0.6413,-0.6412,0,-0.6808,-0.6778,-0.6705,-0.6676,-0.6661,-0.6627,-0.659,-0.6558,-0.6528,-0.6521,-0.6495,-0.6496,-0.6449,-0.6479,-0.6412,-0.6445,-0.6423,-0.6411,-0.6408,-0.6401,-0.6434,-0.6374,-0.628,-0.6268,-0.6396,-0.6398,-0.6399,0,-0.6754,-0.6695,-0.6643,-0.6628,-0.6593,-0.6569,-0.6553,-0.6525,-0.6502,-0.6469,-0.6453,-0.6414,-0.6393,-0.6362,-0.6351,-0.6375,-0.6284,-0.6314,-0.6275,-0.6275,-0.6254,-0.6255,-0.6152,-0.6244,-0.6244,-0.6244,-0.6244,0,-0.6676,-0.663,-0.6618,-0.6586,-0.6534,-0.653,-0.6478,-0.6464,-0.6439,-0.6403,-0.6408,-0.6373,-0.6362,-0.6325,-0.6317,-0.6261,-0.6252,-0.6243,-0.6241,-0.6241,-0.6242,-0.6225,-0.6228,-0.6241,-0.6242,-0.6242,-0.6243,0,-0.6605,-0.6595,-0.6539,-0.6512,-0.6503,-0.6466,-0.6442,-0.641,-0.6399,-0.6352,-0.6341,-0.6323,-0.6279,-0.6266,-0.6214,-0.6208,-0.6142,-0.6146,-0.6152,-0.6151,-0.6112,-0.6115,-0.5992,-0.5974,-0.6081,-0.608,-0.6079,0,-0.6555,-0.652,-0.6489,-0.6466,-0.6449,-0.6412,-0.6388,-0.6381,-0.6356,-0.6319,-0.6291,-0.6248,-0.6214,-0.6143,-0.6124,-0.6083,-0.6084,-0.6044,-0.6077,-0.6078,-0.608,-0.6081,-0.6076,-0.6036,-0.6035,-0.6034,-0.6033,0,-0.6466,-0.6463,-0.6429,-0.6392,-0.6364,-0.6335,-0.6306,-0.6287,-0.6276,-0.6246,-0.6203,-0.6176,-0.6123,-0.6079,-0.6038,-0.6019,-0.6023,-0.6023,-0.6012,-0.601,-0.6014,-0.6009,-0.6132,-0.6026,-0.6026,-0.6027,-0.6027,-0.6028,-0.6402,-0.6371,-0.6344,-0.6305,-0.6284,-0.6257,-0.6225,-0.621,-0.6174,-0.6131,-0.6129,-0.6081,-0.605,-0.5996,-0.5975,-0.5935,-0.5947,-0.5931,-0.5926,-0.5921,-0.5917,-0.6023,-0.5928,-0.5928,-0.5929,-0.5929,-0.5929,0,-0.6311,-0.6294,-0.6259,-0.622,-0.6188,-0.6198,-0.6167,-0.6139,-0.6097,-0.607,-0.6036,-0.5984,-0.5942,-0.592,-0.5877,-0.5849,-0.585,-0.5838,-0.5838,-0.5833,-0.591,-0.5923,-0.5838,-0.5838,-0.5838,-0.5838,-0.5838,-0.5838,-0.626,-0.6207,-0.62,-0.6135,-0.6118,-0.6072,-0.6053,-0.6028,-0.6005,-0.5948,-0.5914,-0.59,-0.5873,-0.5829,-0.5789,-0.5784,-0.5766,-0.5753,-0.5748,-0.5819,-0.5828,-0.5837,-0.5849,-0.575,-0.575,-0.5674,-0.5673,-0.5672]}]]